Location: Katowice
(50.2611°N, 19.0242°E)
Time: 08:14:10
(UTC+02:00)

Tiros 1 - Pass Details

Date: 25 August 2019
Orbit: 631 x 664 km, 48.4° (Epoch: 16 September)

Event Time Altitude Azimuth Distance (km) Brightness Sun altitude
Exits shadow 04:21:13 14° 271° (W) 1,798 9.0 -13.1°
Maximum altitude 04:25:05 48° 201° (SSW) 839 7.4 -12.6°
Drops below altitude 10° 04:29:35 10° 127° (SE) 2,036 10.0 -12.0°
Sets 04:31:59 0° 122° (ESE) 2,950 10.9 -11.6°
